This is the latest recevied weather packets stored in our database for station/object Ummendorf. If no packets are shown the sender has not sent any weather packets the latest 10 day(s).
| Time | Temp. | Humidity | Pressure | Rain* | Wind** | Luminosity | Snow |
|---|---|---|---|---|---|---|---|
| 1787943732 | 16.67° C | 64% | 1016.2 hPa | 7.11 mm | - | - | - |
| 1787941931 | 16.67° C | 65% | 1015.8 hPa | 6.86 mm | - | - | - |
| 1787940131 | 17.22° C | 65% | 1015.4 hPa | 6.86 mm | - | - | - |
| 1787938334 | 17.78° C | 63% | 1015.1 hPa | 6.35 mm | - | - | - |
| 1787936532 | 18.33° C | 61% | 1015 hPa | 5.59 mm | - | - | - |
| 1787934731 | 18.89° C | 59% | 1014.6 hPa | 5.08 mm | - | - | - |
| 1787932931 | 19.44° C | 59% | 1013.9 hPa | 5.08 mm | - | - | - |
| 1787931130 | 20° C | 57% | 1013.7 hPa | 5.08 mm | - | - | - |
| 1787929330 | 20° C | 59% | 1014.2 hPa | 5.08 mm | - | - | - |
| 1787927530 | 19.44° C | 62% | 1013.9 hPa | 4.83 mm | - | - | - |
| 1787925730 | 18.89° C | 63% | 1013.9 hPa | 4.83 mm | - | - | - |
| 1787923930 | 19.44° C | 63% | 1014.7 hPa | 4.57 mm | - | - | - |
| 1787922130 | 19.44° C | 64% | 1014.2 hPa | 4.57 mm | - | - | - |
| 1787920330 | 20° C | 64% | 1013.5 hPa | 4.57 mm | - | - | - |
| 1787918530 | 18.89° C | 64% | 1015.1 hPa | 4.06 mm | - | - | - |
| 1787916730 | 19.44° C | 61% | 1014.4 hPa | 2.29 mm | - | - | - |
| 1787914930 | 20° C | 63% | 1013.5 hPa | 1.52 mm | - | - | - |
| 1787913130 | 20° C | 60% | 1012.6 hPa | 1.52 mm | - | - | - |
| 1787911331 | 20° C | 60% | 1012.8 hPa | 1.52 mm | - | - | - |
| 1787909530 | 21.67° C | 62% | 1012.7 hPa | 1.52 mm | - | - | - |
| 1787907730 | 23.33° C | 56% | 1011.9 hPa | 0 mm | - | - | - |
| 1787905930 | 23.89° C | 54% | 1008.6 hPa | 0 mm | - | - | - |
| 1787904130 | 23.33° C | 54% | 1008.8 hPa | 0 mm | - | - | - |
| 1787902333 | 22.78° C | 55% | 1010.2 hPa | 0 mm | - | - | - |
| 1787900530 | 22.22° C | 57% | 1010.4 hPa | 0 mm | - | - | - |
* Rain since midnight (hover to see other rain measurements)
** Current wind speed in m/s (hover to see current wind gust speed)